This is the latest recevied weather packets stored in our database for station/object WP3OF. If no packets are shown the sender has not sent any weather packets the latest 10 day(s).
| Time | Temp. | Humidity | Pressure | Rain* | Wind** | Luminosity | Snow |
|---|---|---|---|---|---|---|---|
| 1778142770 | 23.33° C | 79% | 1018.6 hPa | 0 mm | - | - | - |
| 1778142466 | 23.33° C | 79% | 1018.6 hPa | 0 mm | - | - | - |
| 1778142162 | 23.33° C | 79% | 1018.4 hPa | 0 mm | - | - | - |
| 1778141858 | 22.78° C | 79% | 1018.3 hPa | 0 mm | - | - | - |
| 1778141555 | 22.78° C | 82% | 1018.3 hPa | 0 mm | - | - | - |
| 1778141251 | 23.33° C | 81% | 1018.7 hPa | 0 mm | - | - | - |
| 1778140948 | 22.78° C | 80% | 1018.5 hPa | 0 mm | - | - | - |
| 1778140644 | 23.33° C | 79% | 1018.3 hPa | 0 mm | - | - | - |
| 1778140340 | 23.33° C | 77% | 1018.3 hPa | 0 mm | - | - | - |
| 1778140036 | 23.89° C | 76% | 1018.4 hPa | 0 mm | - | - | - |
| 1778139735 | 23.33° C | 76% | 1018.5 hPa | 0 mm | - | - | - |
| 1778139430 | 23.33° C | 78% | 1018.4 hPa | 0 mm | - | - | - |
| 1778139121 | 23.89° C | 77% | 1018.4 hPa | 0 mm | - | - | - |
| 1778138820 | 23.89° C | 77% | 1018.5 hPa | 0 mm | - | - | - |
| 1778138516 | 23.33° C | 78% | 1018.5 hPa | 0 mm | - | - | - |
| 1778138214 | 23.89° C | 78% | 1018.6 hPa | 0 mm | - | - | - |
| 1778137910 | 23.89° C | 77% | 1018.6 hPa | 0 mm | - | - | - |
| 1778137607 | 24.44° C | 76% | 1018.7 hPa | 0 mm | - | - | - |
| 1778137304 | 24.44° C | 75% | 1018.7 hPa | 0 mm | - | - | - |
| 1778136999 | 24.44° C | 75% | 1018.7 hPa | 0 mm | - | - | - |
| 1778136697 | 24.44° C | 75% | 1018.8 hPa | 0 mm | - | - | - |
| 1778136394 | 24.44° C | 76% | 1018.8 hPa | 0 mm | - | - | - |
| 1778136093 | 24.44° C | 78% | 1018.9 hPa | 0 mm | - | - | - |
| 1778135790 | 23.89° C | 79% | 1018.9 hPa | 0 mm | - | - | - |
| 1778135487 | 24.44° C | 81% | 1019.2 hPa | 0 mm | - | - | - |
* Rain latest hour (hover to see other rain measurements)
** Current wind speed in m/s (hover to see current wind gust speed)